Weather History for North Bend, OR

Change the Weather History Date:

Saturday, May 17, 2014

  Actual Average Record
Temperature  
Mean Temperature 59 °F 53 °F  
Max Temperature 63 °F 59 °F 75 °F (1956)
Min Temperature 55 °F 47 °F 36 °F (1966)
Degree Days  
Heating Degree Days 6 12  
Month to date heating degree days 142 219  
Since 1 July heating degree days 3775 4405  
Cooling Degree Days 0 0  
Month to date cooling degree days 4 0  
Year to date cooling degree days 12 0  
Growing Degree Days 8 (Base 50)    
Moisture  
Dew Point 54 °F    
Average Humidity 86    
Maximum Humidity 0    
Minimum Humidity 0    
Precipitation  
Precipitation 0.03 in 0.11 in 1.19 in (1957)
Month to date precipitation 1.56 1.93  
Year to date precipitation 21.18 32.71  
Sea Level Pressure  
Sea Level Pressure 30.05 in    
Wind  
Wind Speed 5 mph (WNW)    
Max Wind Speed 10 mph    
Max Gust Speed -    
Visibility 10 miles    
Events      
T = Trace of Precipitation, MM = Missing Value Source: NWS Daily Summary

Daily Weather History Graph

Daily Weather History Graph

Search for Another Location

Airport:

Trip Planner

Search our weather history database for the weather conditions in past years. The results will help you decide how hot, cold, wet, or windy it might be!

Date:

Astronomy

May. 17, 2014 Rise Set
Actual Time 5:50 AM PDT 8:36 PM PDT
Civil Twilight 5:17 AM PDT 9:10 PM PDT
Nautical Twilight 4:35 AM PDT 9:52 PM PDT
Astronomical Twilight 3:47 AM PDT 10:41 PM PDT
Moon 11:41 PM PDT (5/17) 8:39 AM PDT (5/17)
Length of Visible Light 15h 53m
Length of Day
14h 46m
Waning Gibbous, 88% of the Moon is Illuminated
May 17
Waning Gibbous
May 21
Last Quarter
May 28
New
Jun 5
First Quarter
Jun 12
Full

Hourly Weather History & Observations

Time (PDT) Temp. Dew Point Humidity Pressure Visibility Wind Dir Wind Speed Gust Speed Precip Events Conditions
12:15 AM 57.2 °F 55.4 °F 94% 30.15 in 10.0 mi NW 3.5 mph - N/A   Overcast
12:35 AM 55.4 °F 55.4 °F 100% 30.16 in 5.0 mi NW 4.6 mph - N/A   Overcast
12:55 AM 55.4 °F 55.4 °F 100% 30.15 in 8.0 mi Calm Calm - N/A   Overcast
1:15 AM 55.4 °F 55.4 °F 100% 30.15 in 10.0 mi Calm Calm - N/A   Overcast
1:35 AM 55.4 °F 55.4 °F 100% 30.14 in 10.0 mi Calm Calm - N/A   Overcast
1:55 AM 57.2 °F 55.4 °F 94% 30.13 in 10.0 mi Calm Calm - N/A   Overcast
2:15 AM 55.4 °F 55.4 °F 100% 30.12 in 10.0 mi ESE 5.8 mph - N/A   Mostly Cloudy
2:35 AM 55.4 °F 55.4 °F 100% 30.12 in 10.0 mi East 3.5 mph - N/A   Mostly Cloudy
2:55 AM 55.4 °F 55.4 °F 100% 30.12 in 10.0 mi Calm Calm - N/A   Mostly Cloudy
3:15 AM 55.4 °F 55.4 °F 100% 30.12 in 9.0 mi Calm Calm - N/A   Overcast
3:35 AM 55.4 °F 55.4 °F 100% 30.11 in 10.0 mi Calm Calm - N/A   Overcast
3:55 AM 55.4 °F 55.4 °F 100% 30.11 in 10.0 mi East 3.5 mph - N/A   Overcast
4:15 AM 55.4 °F 53.6 °F 94% 30.08 in 10.0 mi East 6.9 mph - N/A   Overcast
4:35 AM 55.4 °F 55.4 °F 100% 30.10 in 10.0 mi Calm Calm - N/A   Overcast
4:55 AM 55.4 °F 53.6 °F 94% 30.09 in 10.0 mi Calm Calm - N/A   Mostly Cloudy
5:15 AM 55.4 °F 53.6 °F 94% 30.10 in 10.0 mi Calm Calm - N/A   Mostly Cloudy
5:35 AM 55.4 °F 53.6 °F 94% 30.08 in 10.0 mi East 4.6 mph - N/A   Overcast
5:55 AM 55.4 °F 55.4 °F 100% 30.08 in 10.0 mi Calm Calm - N/A   Overcast
6:15 AM 55.4 °F 55.4 °F 100% 30.08 in 10.0 mi North 3.5 mph - N/A   Overcast
6:35 AM 55.4 °F 55.4 °F 100% 30.08 in 10.0 mi Calm Calm - N/A   Overcast
6:55 AM 55.4 °F 53.6 °F 94% 30.08 in 10.0 mi Calm Calm - N/A   Mostly Cloudy
7:15 AM 55.4 °F 55.4 °F 100% 30.08 in 10.0 mi Calm Calm - N/A   Mostly Cloudy
7:35 AM 55.4 °F 53.6 °F 94% 30.08 in 10.0 mi Calm Calm - N/A   Overcast
7:55 AM 57.2 °F 55.4 °F 94% 30.08 in 9.0 mi Calm Calm - N/A   Overcast
8:15 AM 57.2 °F 53.6 °F 88% 30.07 in 10.0 mi NNW 4.6 mph - N/A   Overcast
8:35 AM 57.2 °F 55.4 °F 94% 30.08 in 10.0 mi North 5.8 mph - N/A   Overcast
8:55 AM 57.2 °F 53.6 °F 88% 30.08 in 10.0 mi North 9.2 mph - N/A   Overcast
9:15 AM 57.2 °F 53.6 °F 88% 30.08 in 10.0 mi North 9.2 mph - N/A   Overcast
9:35 AM 57.2 °F 53.6 °F 88% 30.07 in 10.0 mi North 8.1 mph - N/A   Overcast
9:55 AM 59.0 °F 53.6 °F 82% 30.07 in 10.0 mi North 5.8 mph - N/A   Overcast
10:15 AM 59.0 °F 53.6 °F 82% 30.06 in 10.0 mi North 3.5 mph - N/A   Overcast
10:35 AM 60.8 °F 53.6 °F 77% 30.06 in 10.0 mi Calm Calm - N/A   Overcast
10:55 AM 60.8 °F 53.6 °F 77% 30.06 in 10.0 mi WNW 4.6 mph - N/A   Overcast
11:15 AM 62.6 °F 51.8 °F 68% 30.06 in 10.0 mi WNW 6.9 mph - N/A   Mostly Cloudy
11:35 AM 62.6 °F 51.8 °F 68% 30.05 in 10.0 mi WNW 5.8 mph - N/A   Scattered Clouds
11:55 AM 62.6 °F 51.8 °F 68% 30.04 in 10.0 mi WNW 8.1 mph - N/A   Partly Cloudy
12:15 PM 62.6 °F 53.6 °F 72% 30.04 in 10.0 mi WNW 8.1 mph - N/A   Clear
12:35 PM 62.6 °F 53.6 °F 72% 30.04 in 10.0 mi NW 10.4 mph - N/A   Clear
12:55 PM 62.6 °F 53.6 °F 72% 30.04 in 10.0 mi NW 9.2 mph - N/A   Clear
1:15 PM 62.6 °F 53.6 °F 72% 30.04 in 10.0 mi WNW 9.2 mph - N/A   Clear
1:35 PM 62.6 °F 51.8 °F 68% 30.03 in 10.0 mi NW 10.4 mph - N/A   Clear
1:55 PM 62.6 °F 51.8 °F 68% 30.03 in 10.0 mi WNW 8.1 mph - N/A   Clear
2:15 PM 62.6 °F 51.8 °F 68% 30.03 in 10.0 mi WNW 10.4 mph - N/A   Clear
2:35 PM 62.6 °F 51.8 °F 68% 30.02 in 10.0 mi WNW 10.4 mph - N/A   Clear
2:55 PM 60.8 °F 51.8 °F 72% 30.02 in 10.0 mi WNW 10.4 mph - N/A   Clear
3:15 PM 62.6 °F 51.8 °F 68% 30.02 in 10.0 mi WNW 9.2 mph - N/A   Clear
3:35 PM 60.8 °F 51.8 °F 72% 30.02 in 10.0 mi WNW 8.1 mph - N/A   Clear
3:55 PM 60.8 °F 51.8 °F 72% 30.02 in 10.0 mi NW 9.2 mph - N/A   Clear
4:15 PM 60.8 °F 51.8 °F 72% 30.01 in 10.0 mi NW 8.1 mph - N/A   Clear
4:35 PM 60.8 °F 51.8 °F 72% 30.01 in 10.0 mi WNW 5.8 mph - N/A   Clear
4:55 PM 60.8 °F 51.8 °F 72% 30.01 in 10.0 mi WNW 8.1 mph - N/A   Clear
5:15 PM 60.8 °F 51.8 °F 72% 30.00 in 10.0 mi WNW 5.8 mph - N/A   Clear
5:35 PM 60.8 °F 51.8 °F 72% 30.00 in 10.0 mi West 4.6 mph - N/A   Clear
5:55 PM 60.8 °F 51.8 °F 72% 29.99 in 10.0 mi West 6.9 mph - N/A   Clear
6:15 PM 60.8 °F 51.8 °F 72% 29.99 in 10.0 mi West 6.9 mph - N/A   Clear
6:35 PM 59.0 °F 51.8 °F 77% 29.99 in 10.0 mi West 6.9 mph - N/A   Mostly Cloudy
6:55 PM 57.2 °F 51.8 °F 82% 29.99 in 10.0 mi West 8.1 mph - N/A   Overcast
7:15 PM 57.2 °F 51.8 °F 82% 29.99 in 10.0 mi West 9.2 mph - N/A   Overcast
7:35 PM 57.2 °F 51.8 °F 82% 29.99 in 10.0 mi WSW 6.9 mph - N/A   Overcast
7:55 PM 57.2 °F 51.8 °F 82% 29.98 in 10.0 mi WSW 8.1 mph - N/A   Overcast
8:15 PM 57.2 °F 51.8 °F 82% 29.98 in 10.0 mi WSW 8.1 mph - N/A   Overcast
8:35 PM 57.2 °F 51.8 °F 82% 29.97 in 10.0 mi SW 5.8 mph - N/A   Overcast
8:55 PM 57.2 °F 53.6 °F 88% 29.97 in 10.0 mi South 8.1 mph - N/A   Overcast
9:15 PM 55.4 °F 53.6 °F 94% 29.97 in 10.0 mi South 5.8 mph - N/A   Overcast
9:35 PM 55.4 °F 53.6 °F 94% 29.96 in 9.0 mi SE 6.9 mph - 0.02 in   Overcast
9:55 PM 55.4 °F 55.4 °F 100% 29.97 in 10.0 mi South 8.1 mph - 0.02 in   Overcast
10:15 PM 55.4 °F 55.4 °F 100% 29.97 in 10.0 mi South 5.8 mph - N/A   Overcast
10:35 PM 55.4 °F 53.6 °F 94% 29.97 in 10.0 mi South 6.9 mph - N/A   Overcast
10:55 PM 55.4 °F 55.4 °F 100% 29.96 in 10.0 mi South 5.8 mph - N/A   Overcast
11:15 PM 55.4 °F 55.4 °F 100% 29.96 in 5.0 mi South 5.8 mph - 0.01 in   Overcast
11:35 PM 55.4 °F 55.4 °F 100% 29.96 in 10.0 mi South 5.8 mph - 0.01 in   Overcast
11:55 PM 55.4 °F 55.4 °F 100% 29.95 in 10.0 mi South 9.2 mph - 0.01 in   Overcast